TIANWANG 1A (TW-1A)
1 40928U 15051D   19250.86702722  .00003019  00000-0  74727-4 0  9990
2 40928  97.1402 280.3680 0011982 131.3789 353.7259 15.41133874221677
LAPAN A2
1 40931U 15052B   19250.33319915  .00000778  00000-0  19249-4 0  9992
2 40931   5.9944 201.5304 0013702 218.7876 141.1628 14.76613943213202
LQSAT
1 40958U 15057A   19250.87110062 -.00000001 +00000-0 +75382-5 0  9998
2 40958 097.8924 317.8485 0017692 345.2623 014.8067 14.73087881210762
CHUBUSAT 2
1 41338U 16012B   19250.66769954 +.00000300 +00000-0 +16568-4 0  9991
2 41338 031.0042 350.1507 0013709 185.7586 174.2893 15.00174725195081
CHUBUSAT 3
1 41339U 16012C   19250.62775113  .00000368  00000-0  21835-4 0  9999
2 41339  31.0116 348.3926 0013394 193.0114 167.0175 15.00349071195077
OUFTI-1
1 41458U 16025C   19250.72169845 +.00001366 +00000-0 +72438-4 0  9999
2 41458 098.1011 341.6864 0167606 084.7474 277.2852 15.05995042184765
E-STAR-2
1 41459U 16025D   19250.82409287  .00001112  00000-0  60208-4 0  9999
2 41459  98.1008 341.4131 0168845  85.7675 276.2815 15.05618908184757
AAUSAT 4
1 41460U 16025E   19250.89645270 +.00002008 +00000-0 +10293-3 0  9995
2 41460 098.0966 342.9342 0158634 077.5118 284.3723 15.07573026184905
NUSAT 1
1 41557U 16033B   19250.89376832 +.00000984 +00000-0 +39443-4 0  9996
2 41557 097.4163 337.9219 0014153 017.9997 342.1741 15.27350836182489
BEESAT 4
1 41619U 16040W   19250.84398156 +.00001105 +00000-0 +49485-4 0  9994
2 41619 097.3606 311.5314 0013048 097.7842 262.4877 15.23273011166212
PRATHAM
1 41783U 16059A   19250.71412259 +.00000038 +00000-0 +16510-4 0  9990
2 41783 098.0602 308.4764 0034697 128.0297 232.4045 14.63007487157395
ALSAT 1N
1 41789U 16059G   19250.83864110  .00000067  00000-0  21637-4 0  9994
2 41789  98.0639 310.7708 0029529 116.9104 243.5103 14.64259564157525
NAYIF 1
1 42017U 17008BX  19250.43902054  .00001162  00000-0  48450-4 0  9999
2 42017  97.3970 316.6810 0004783 235.6918 124.3868 15.25685180142237
MAX VALIER SAT
1 42778U 17036P   19250.72068570 +.00000699 +00000-0 +33508-4 0  9994
2 42778 097.3472 306.5742 0010823 304.3027 055.7184 15.22116960122561
